User: anonymous   Login
Location: Stigler
(35.2540°N, 95.1230°W)
Time: 08:19:26
(UTC-06:00)
Language:

Cosmos 1805 - Orbit

View from above orbital plane
View from above orbital plane
View from above satellite
View from above satellite

Ground track
Ground track

The orbit data is extracted from the following two-line orbital elements,

1 17191U 86097A   14330.81793833  .00004702  00000-0  29958-3 0   442
2 17191 082.5023 226.8957 0009875 050.6194 309.5908 15.08490795522735
Epoch (UTC): 26 November 2014 19:37:49
Eccentricity: 0.0009875
inclination: 82.5023°
perigee height: 534 km
apogee height: 547 km
right ascension of ascending node: 226.8957°
argument of perigee: 50.6194°
revolutions per day: 15.08490795
mean anomaly at epoch: 309.5908°
orbit number at epoch: 52273

The dashed part of the orbit path shows where the satellite is in the earth's shadow,  

DLR